Location: Lecco
(45.8566°N, 9.3977°E)
Time: 09:46:31
(UTC+02:00)

S-56A Canister/Altair - Pass Details

Date: 23 July 2019
Orbit: 633 x 2499 km, 38.9° (Epoch: 23 August)

Event Time Altitude Azimuth Distance (km) Brightness Sun altitude
Rises 04:41:08 0° 171° (S) 4,493 11.1 -10.9°
Reaches altitude 10° 04:46:43 10° 143° (SE) 3,975 11.1 -10.2°
Maximum altitude 04:50:16 12° 124° (ESE) 4,065 11.4 -9.8°
Drops below altitude 10° 04:54:10 10° 105° (ESE) 4,497 11.9 -9.3°
Sets 05:01:40 0° 80° (E) 5,893 13.2 -8.3°
